Location: Hermaringen
(48.5952°N, 10.2585°E)
Time: 10:38:58
(UTC+00:00)

Courier 1B - Pass Details

Date: 24 February 2026
Orbit: 962 x 1208 km, 28.3° (Epoch: 7 March)

Event Time Altitude Azimuth Distance (km) Brightness Sun altitude
Rises 17:19:19 0° 222° (SW) 3,747 11.5 -4.8°
Reaches altitude 10° 17:23:47 10° 195° (SSW) 2,852 10.3 -5.6°
Maximum altitude 17:26:34 13° 171° (S) 2,694 9.8 -6.0°
Drops below altitude 10° 17:29:24 10° 147° (SSE) 2,928 9.8 -6.5°
Sets 17:34:09 0° 121° (ESE) 3,950 10.2 -7.3°
Enters shadow 17:34:10 - 121° (ESE) 3,953 10.2 -7.3°
